Regional Weather Roundup
Issued by NWS

Home | Current Version | Previous Version | Graphics & Text | Print | Product List | Glossary On
Versions: 1 2 3 4 5 6 7 8 9 10 11 12 13 14 15 16 17 18 19 20 21 22 23 24 25 26 27 28 29 30 31 32 33 34 35 36 37 38 39 40 41 42 43 44 45 46 47 48 49 50
000
ASUS45 KBOU 181410
RWRCO

WEATHER ROUNDUP FOR COLORADO
NATIONAL WEATHER SERVICE DENVER/BOULDER CO
700 AM MST SAT NOV 18 2017

NOTE: "FAIR" INDICATES FEW OR NO CLOUDS BELOW 12000 FEET WITH NO
SIGNIFICANT WEATHER AND/OR OBSTRUCTIONS TO VISIBILITY.

COZ001>005-013-030-031-181500-
...NORTHWEST COLORADO...

CITY           SKY/WX    TMP DP  RH WIND       PRES   REMARKS
CRAIG          FAIR       8   3  80 CALM      30.39R
HAYDEN         FAIR      16  12  84 S5        30.38R WCI   9
MEEKER         FAIR       7   4  87 MISG      30.39R
RABBIT EARS PA CLOUDY   N/A N/A N/A W10G21    30.21R
STEAMBOAT SPGS MOCLDY    16  13  87 SE6       30.36R WCI   7
WALDEN         FAIR       5   0  78 S6        30.27R WCI  -6
$$

COZ006>008-011-181500-
...WEST CENTRAL VALLEYS...

CITY           SKY/WX    TMP DP  RH WIND       PRES   REMARKS
GRAND JUNCTION FAIR      22  16  78 E6        30.41R WCI  14
MONTROSE       FAIR      21  15  78 SE9       30.43R WCI  11
EAGLE          FAIR      13  10  88 E7        30.42R WCI   3
RIFLE          FAIR      16  12  84 S3        30.43R
DELTA          FAIR      24  17  74 NE6       30.42R WCI  17
NUCLA          FAIR      21  14  73 E9        30.41R WCI  11
$$

COZ017>023-064>068-181500-
...SOUTHWEST COLORADO...

CITY           SKY/WX    TMP DP  RH WIND       PRES   REMARKS
DURANGO        FAIR      21  10  62 SE5       30.26R WCI  15
CORTEZ         FAIR      26  12  55 NW8       30.31R WCI  18
PAGOSA SPRINGS FAIR      21  12  69 NE6       30.27R WCI  13
TELLURIDE      NOT AVBL
WOLF CREEK PAS FAIR      12 -13  31 CALM      30.27R
$$

COZ009-010-012-014-032>034-037-058>063-181500-
...CENTRAL COLORADO...

CITY           SKY/WX    TMP DP  RH WIND       PRES   REMARKS
ASPEN          FAIR      15  11  83 S6        30.34R WCI   6
BUENA VISTA    FAIR      20   7  56 NW29G41   30.21F WCI   1
COPPER MTN     CLOUDY     5   0  78 MISG      30.20R
BERTHOUD PASS  SNOW      -4 -15  59 NW35G48   30.08R VSB 1/4 WCI -33
COTTONWOOD PAS FAIR      23   0  36 W10G24    30.17R WCI  12
GUNNISON       FAIR      11   6  81 NE5       30.36R WCI   3
KREMMLING      CLOUDY    23  14  68 W7        30.36R WCI  15
LEADVILLE      FAIR       3  -2  79 NE6       30.26R WCI  -8
MONARCH PASS   CLOUDY     1  -2  85 SW25G33   30.26R WCI -22
SALIDA         FAIR      24  10  55 N8        30.32R WCI  14
SUNLIGHT         N/A    N/A N/A N/A MISG      30.31R
WILKERSON PASS   N/A      9  -6  52 W8G20     30.14S WCI  -4
$$

COZ069>075-181500-
...SAN LUIS VALLEY/SANGRE DE CRISTO MOUNTAINS...

CITY           SKY/WX    TMP DP  RH WIND       PRES   REMARKS
ALAMOSA        FAIR      22   6  50 N14       30.24R WCI   9
DEL NORTE      FAIR      13   5  69 W6        30.25R WCI   4
LA VETA PASS   FAIR      14   3  62 S21G29      N/A  WCI  -4
SAGUACHE       FAIR      21   7  53 N20G26    30.27R WCI   6
$$

COZ035-036-038>040-181500-
...NORTHERN COLORADO FRONT RANGE...

CITY           SKY/WX    TMP DP  RH WIND       PRES   REMARKS
DENVER INTL AP FAIR      29  18  63 SW6       30.20R WCI  23
DMNS CITY PARK   N/A     31   6  34 MISG      30.20R
AURORA         PTCLDY    28  17  63 N3        30.21R
FRONT RANGE AP PTCLDY    28  21  74 W7        30.20R WCI  21
ERIE MUNI ARPT FAIR      27  18  70 SE6       30.25R WCI  20
BOULDER MUN AP FAIR      28  18  64 CALM      30.19R
CENTENNIAL     FAIR      25  14  63 E3        30.19R
BROOMFIELD     CLEAR     27   9  46 W7        30.19R WCI  19
FORT COLLINS   FAIR      26  14  60 NW6       30.20R WCI  19
LONGMONT       FAIR      31  18  60 NW3       30.21R
$$

COZ041-046-047-076>085-087-088-181500-
...PIKES PEAK/PALMER DIVIDE AND SOUTHERN FOOTHILLS...

CITY           SKY/WX    TMP DP  RH WIND       PRES   REMARKS
COLO. SPRINGS  FAIR      24  17  74 N12       30.20R WCI  13
A. F. ACADEMY  FAIR      21  11  65 NW8       30.18R WCI  12
SCHRIEVER AFB  FAIR      25  16  68 N6        30.20R WCI  18
CHEYENNE MTN   FAIR      27   9  46 SW6       30.12R WCI  20
ELLICOTT       NOT AVBL
FALCON         FAIR      18  15  88 NW12      30.19R WCI   5
FORT CARSON    FAIR      25  18  76 W3        30.19R
LIMON          FAIR      23  18  81 NW9       30.20R WCI  13
MONUMENT HILL  FAIR      14  12  92 W10       30.20R WCI   1
CANON CITY     FAIR      32  12  43 NW12      30.20S WCI  23
WALSENBURG     FAIR      27  19  74 W8        30.22R WCI  18
TRINIDAD       FAIR      30  26  85 CALM      30.24R
$$

COZ042>045-048>051-090-091-181500-
...NORTHEAST COLORADO...

CITY           SKY/WX    TMP DP  RH WIND       PRES   REMARKS
GREELEY ARPT   FAIR      29  15  56 N14       30.19R WCI  18
AKRON          FAIR      25  18  74 N14       30.17R WCI  13
BURLINGTON     FAIR      32  22  66 NW22G33   30.17R WCI  19
WRAY           NOT AVBL
YUMA           FAIR      30  21  69 NW9       30.18R WCI  22
STERLING       FAIR      30  23  74 NW13      30.19R WCI  20
HOLYOKE        FAIR      34  21  60 NW17G24   30.15R WCI  23
FORT MORGAN    FAIR      30  17  57 NW17G23   30.22R WCI  18
$$

COZ086-089-092>099-181500-
...SOUTHEAST COLORADO...

CITY           SKY/WX    TMP DP  RH WIND       PRES   REMARKS
PUEBLO         FAIR      31  23  72 NW6       30.22R WCI  25
LA JUNTA       FAIR      33  23  66 N13       30.23R WCI  24
LAMAR          FAIR      38  19  46 N23G36    30.17R
SPRINGFIELD      N/A     33  24  69 N24G31    30.17R WCI  20
$$



USA.gov is the U.S. government's official web portal to all federal, state and local government web resources and services.